[[{"header":{"parameterUnit":"m.s-1","parameterCategory":2,"la1":30.2991,"la2":30.254,"lo1":-89.0895,"lo2":-89.0444,"dy":0.0017,"dx":0.0017,"nx":28,"ny":28,"refTime":"2023-04-25T21:00:00:Z","depth":"0","parameterNumber":2,"parameterNumberName":"U-component_of_CURRENTS"},"data":[0,0,0,0,0,0,0,0,0,0,0,0,0,0,0,0,0,0,0,0,0,0,0,0,0,0,0,0,0,0,0,0,0,0,0,0,0,0,0,0,0,0,0,0,0,0,0,0,0,0,0,0,0,0,0,0,0,0,-0.2385,-0.2384,0,-0.2288,-0.2286,-0.2285,-0.225,-0.225,-0.2251,-0.2251,-0.2048,-0.2042,-0.2036,0,0,0,0,0,0,0,0,0,0,0,0,0,-0.2404,-0.2405,-0.2385,-0.2384,-0.2383,-0.2288,-0.2286,-0.2285,-0.225,-0.225,-0.2251,-0.2252,-0.205,-0.2043,-0.2036,0,0,0,0,0,0,0,0,0,0,0,0,0,-0.236,-0.2405,-0.2385,-0.2355,-0.2351,-0.2288,-0.2286,-0.2284,-0.225,-0.225,-0.2251,-0.2252,-0.2052,-0.2044,-0.2035,-0.1967,0,0,-0.2008,-0.2004,0,0,0,0,0,0,0,0,-0.2362,-0.2359,-0.236,-0.2357,-0.2353,-0.2283,-0.2219,-0.2173,-0.225,-0.2287,-0.2251,-0.2252,-0.2117,-0.2103,-0.2083,-0.1957,-0.1949,-0.2007,-0.2002,-0.1998,-0.1996,0,0,0,0,0,0,0,-0.2366,-0.2362,-0.2345,-0.2359,-0.2355,-0.23,-0.2295,-0.221,-0.2196,-0.2284,-0.2281,-0.2272,-0.2114,-0.2091,-0.2077,-0.1946,-0.2008,-0.2,-0.1994,-0.1991,-0.1779,-0.1778,0,0,0,0,0,0,-0.2387,-0.2366,-0.2348,-0.2342,-0.2361,-0.2299,-0.2294,-0.2303,-0.2199,-0.2185,-0.2272,-0.2271,-0.2106,-0.2088,-0.207,-0.1805,-0.1998,-0.199,-0.1985,-0.1779,-0.1779,-0.1778,0,0,0,0,0,0,-0.2388,-0.2387,-0.2352,-0.2351,-0.2343,-0.23,-0.2309,-0.2301,-0.2274,-0.2192,-0.2176,-0.2253,-0.2106,-0.2082,-0.1994,-0.1804,-0.1986,-0.1978,-0.1779,-0.1779,-0.1778,-0.1388,0,0,0,0,0,0,-0.2389,-0.2388,-0.2391,-0.2354,-0.2344,-0.2261,-0.2308,-0.2299,-0.2268,-0.2266,-0.2169,-0.2152,-0.2104,-0.2007,-0.1985,-0.1795,-0.1971,-0.178,-0.1779,-0.1778,-0.1402,-0.1375,-0.1351,0,0,0,0,0,-0.2391,-0.2341,-0.2392,-0.2389,-0.2354,-0.2257,-0.2244,-0.2215,-0.2267,-0.2205,-0.219,-0.2155,-0.1988,-0.1999,-0.1973,-0.1775,-0.178,-0.1779,-0.1779,-0.1413,-0.138,-0.1352,0,0,0,0,0,0,-0.231,-0.2333,-0.2387,-0.2343,-0.2302,-0.2251,-0.2178,-0.2214,-0.2157,-0.2135,-0.2131,-0.2108,-0.1991,-0.1984,-0.1998,-0.1744,-0.1885,-0.1879,-0.1616,-0.1585,-0.156,-0.1382,-0.1964,0,0,0,0,0,-0.2315,-0.2305,-0.2306,-0.2264,-0.2237,-0.2231,-0.2195,-0.2166,-0.2121,-0.2098,-0.2051,-0.2013,-0.1968,-0.186,-0.1847,-0.1649,-0.1654,-0.1534,-0.1508,-0.1485,-0.1341,-0.1292,-0.1242,-0.1775,-0.1775,-0.1775,0,0,-0.2286,-0.2282,-0.2286,-0.225,-0.2212,-0.2016,-0.2204,-0.2089,-0.1903,-0.2077,-0.1834,-0.1947,-0.1938,-0.1754,-0.1689,-0.169,-0.1352,-0.1484,-0.146,-0.1327,-0.1284,-0.123,-0.1182,-0.1775,-0.1775,-0.1775,0,0,-0.2056,-0.2199,-0.2038,-0.1977,-0.1889,-0.1872,-0.1845,-0.1783,-0.1742,-0.1577,-0.1697,-0.1681,-0.156,-0.1489,-0.1448,-0.1277,-0.1297,-0.1328,-0.0911,-0.0866,-0.0817,-0.0773,-0.0737,-0.0694,-0.1215,-0.1214,-0.1214,0,-0.1982,-0.1839,-0.1968,-0.1726,-0.1662,-0.1783,-0.1544,-0.146,-0.1376,-0.1354,-0.143,-0.1374,-0.1378,-0.1158,-0.1085,-0.1178,-0.1201,-0.0996,-0.0813,-0.0771,-0.0733,-0.0707,-0.0663,-0.1195,-0.1198,-0.12,-0.1201,0,-0.1557,-0.1466,-0.1354,-0.1132,-0.1062,-0.0912,-0.0844,-0.0775,-0.0815,-0.0782,-0.07,-0.0758,-0.0734,-0.074,-0.0797,-0.0553,-0.0681,-0.0856,-0.0843,-0.0651,-0.0643,-0.0604,-0.1168,-0.1175,-0.1181,-0.1185,0,0,-0.1324,-0.1114,-0.1063,-0.0977,-0.0784,-0.0712,-0.0413,-0.0282,-0.0205,-0.0103,-0.0006,0.0114,-0.0076,-0.0049,-0.0198,-0.0053,0.0172,-0.0263,-0.0271,-0.0138,0.0275,0.0201,0.0233,0.0014,0.0023,0.003,0.0168,0,-0.0956,-0.0545,-0.0498,-0.0157,-0.0009,-0.0058,0.0162,0.0267,0.0255,0.0316,0.0305,0.0305,0.024,0.0146,0.0319,0.0097,0.0296,0.0154,-0.0003,-0.0004,-0.0019,0.0286,0.0348,0.0479,0.0205,0.0211,0.0216,0,-0.0515,-0.0361,0.0011,0.0107,0.017,0.0372,0.0443,0.0633,0.0724,0.0685,0.0767,0.0627,0.082,0.0635,0.0775,0.0662,0.0593,0.0507,0.0503,0.0368,0.0001,0.0235,0.0558,0.0562,0.0274,0.0269,0.0265,0,-0.0391,-0.0041,0.017,0.0255,0.0445,0.054,0.0616,0.0725,0.078,0.0862,0.0833,0.0993,0.0952,0.1016,0.0888,0.0815,0.0967,0.0775,0.0714,0.07,0.0709,0.0683,0.112,0.0992,0.0991,0.0991,0.0991,0,-0.0094,0.0078,0.0206,0.0328,0.0483,0.0591,0.0725,0.0798,0.0876,0.0923,0.0975,0.1005,0.1042,0.107,0.1015,0.1021,0.1076,0.0936,0.0801,0.0827,0.0812,0.0763,0.0686,0.0996,0.0995,0.0994,0.0993,0,0.0036,0.0162,0.036,0.0517,0.0551,0.0646,0.0747,0.082,0.0884,0.0937,0.0955,0.1049,0.11,0.1123,0.1133,0.1121,0.1096,0.1082,0.112,0.0995,0.0959,0.0894,0.1068,0.1048,0.1128,0.1128,0.1128,0,0.0161,0.028,0.0421,0.0486,0.056,0.067,0.0735,0.0817,0.0858,0.0939,0.0956,0.1039,0.1056,0.1132,0.1128,0.114,0.1091,0.122,0.1164,0.1149,0.0975,0.0814,0.0772,0.1298,0.1299,0.13,0.1301,0,0.0331,0.0349,0.046,0.0558,0.0637,0.0704,0.0778,0.0789,0.0856,0.0825,0.0853,0.0878,0.1012,0.1119,0.1166,0.1145,0.1205,0.1241,0.1254,0.1277,0.1113,0.0955,0.0972,0.1312,0.1311,0.131,0.131,0.1309,0.0405,0.0462,0.0558,0.0637,0.0698,0.072,0.0736,0.0767,0.0738,0.071,0.0769,0.0799,0.1137,0.1214,0.1192,0.1302,0.1159,0.1371,0.1331,0.1197,0.1139,0.12,0.1328,0.1327,0.1327,0.1326,0.1325,0,0.0522,0.0556,0.0632,0.0703,0.0717,0.0745,0.0755,0.0734,0.0645,0.0641,0.0636,0.0876,0.1104,0.1324,0.1526,0.1481,0.1337,0.1462,0.1349,0.1326,0.1465,0.1437,0.1562,0.1562,0.1562,0.1562,0.1561,0.1561,0.0601,0.0684,0.0688,0.0709,0.0714,0.0706,0.0683,0.064,0.0634,0.0559,0.062,0.075,0.1107,0.1531,0.1676,0.1624,0.1487,0.1396,0.131,0.1498,0.1488,0.1478,0.1448,0.1572,0.1572,0.1189,0.1187,0.1185]},{"header":{"parameterUnit":"m.s-1","parameterCategory":2,"la1":30.2991,"la2":30.254,"lo1":-89.0895,"lo2":-89.0444,"dy":0.0017,"dx":0.0017,"nx":28,"ny":28,"refTime":"2023-04-25T21:00:00:Z","depth":"0","parameterNumber":3,"parameterNumberName":"V-component_of_CURRENTS"},"data":[0,0,0,0,0,0,0,0,0,0,0,0,0,0,0,0,0,0,0,0,0,0,0,0,0,0,0,0,0,0,0,0,0,0,0,0,0,0,0,0,0,0,0,0,0,0,0,0,0,0,0,0,0,0,0,0,0,0,0.0858,0.0859,0,0.0973,0.0974,0.0976,0.1076,0.1077,0.1078,0.1079,0.1148,0.1148,0.1149,0,0,0,0,0,0,0,0,0,0,0,0,0,0.064,0.0644,0.0858,0.0859,0.0861,0.0973,0.0974,0.0976,0.1076,0.1077,0.1079,0.108,0.1147,0.1148,0.1149,0,0,0,0,0,0,0,0,0,0,0,0,0,0.0742,0.0646,0.0857,0.0925,0.0932,0.0973,0.0974,0.0976,0.1075,0.1077,0.1079,0.1081,0.1147,0.1148,0.1149,0.1119,0,0,0.1152,0.1153,0,0,0,0,0,0,0,0,0.0737,0.075,0.0913,0.092,0.0928,0.1013,0.0923,0.1022,0.1075,0.102,0.1079,0.1082,0.1097,0.1103,0.112,0.1122,0.1125,0.1152,0.1153,0.1153,0.1154,0,0,0,0,0,0,0,0.0729,0.0745,0.0902,0.0915,0.0924,0.0921,0.0938,0.0942,0.1045,0.1025,0.1032,0.1046,0.1101,0.1118,0.1122,0.1126,0.1152,0.1153,0.1154,0.1154,0.1092,0.109,0,0,0,0,0,0,0.072,0.0739,0.0899,0.0906,0.0836,0.0923,0.0943,0.0983,0.1046,0.1059,0.1045,0.1051,0.1116,0.112,0.1124,0.1167,0.1153,0.1154,0.1155,0.1094,0.1091,0.1089,0,0,0,0,0,0,0.0716,0.0734,0.0894,0.0824,0.0844,0.0926,0.097,0.0984,0.1014,0.1062,0.1074,0.1061,0.1117,0.1123,0.1118,0.1167,0.1155,0.1156,0.1097,0.1093,0.109,0.1203,0,0,0,0,0,0,0.0709,0.0733,0.0747,0.0824,0.0848,0.094,0.0969,0.0985,0.1019,0.1028,0.1079,0.1087,0.1119,0.1116,0.1119,0.1168,0.1156,0.11,0.1095,0.1091,0.1202,0.1204,0.1205,0,0,0,0,0,0.0701,0.0728,0.0748,0.0767,0.0871,0.094,0.0953,0.1014,0.1018,0.1042,0.1047,0.1086,0.1091,0.1115,0.1119,0.1171,0.1102,0.1096,0.1092,0.1201,0.1203,0.1205,0,0,0,0,0,0,0.0596,0.0743,0.0767,0.0823,0.0882,0.0958,0.0999,0.1006,0.103,0.1046,0.106,0.1068,0.1084,0.1073,0.1098,0.1123,0.1101,0.1096,0.1183,0.1185,0.1186,0.1293,0.1157,0,0,0,0,0,0.0587,0.0687,0.0767,0.0813,0.0857,0.0916,0.0945,0.0988,0.1022,0.1038,0.1063,0.1066,0.106,0.108,0.1079,0.1094,0.1087,0.1116,0.1118,0.1121,0.1199,0.1131,0.1137,0.1072,0.1072,0.1072,0,0,0.0552,0.065,0.0695,0.0803,0.0871,0.0982,0.0942,0.1016,0.1095,0.1036,0.1133,0.1075,0.1054,0.1083,0.1089,0.1093,0.1133,0.1114,0.1118,0.1197,0.1127,0.1135,0.1141,0.1069,0.1069,0.107,0,0,0.0607,0.0635,0.0774,0.0835,0.0953,0.1008,0.1025,0.1106,0.1134,0.1179,0.1145,0.1097,0.1129,0.1117,0.1112,0.1101,0.113,0.1095,0.1228,0.1159,0.1166,0.1173,0.1189,0.1196,0.1114,0.1115,0.1115,0,0.0548,0.0743,0.0801,0.0946,0.1013,0.1032,0.1163,0.1198,0.1252,0.1269,0.1235,0.12,0.1158,0.1175,0.1185,0.1121,0.112,0.1239,0.1171,0.1176,0.1182,0.1196,0.1202,0.1119,0.1119,0.1118,0.1118,0,0.0758,0.0869,0.0945,0.1172,0.1235,0.1331,0.1405,0.1459,0.1468,0.1479,0.1466,0.1363,0.136,0.1297,0.1266,0.1272,0.1274,0.1171,0.1192,0.1197,0.1209,0.1214,0.1126,0.1124,0.1123,0.1122,0,0,0.0753,0.1038,0.1071,0.1187,0.1353,0.1432,0.1572,0.1683,0.1757,0.1726,0.1784,0.1692,0.1607,0.159,0.1478,0.1414,0.1417,0.135,0.1344,0.1419,0.1355,0.1372,0.1379,0.1314,0.1314,0.1315,0.1358,0,0.0903,0.1187,0.1306,0.1537,0.1672,0.1729,0.1856,0.1933,0.1946,0.1995,0.1858,0.184,0.1727,0.1683,0.1622,0.145,0.1436,0.1423,0.1297,0.1297,0.1352,0.1386,0.1378,0.1417,0.1362,0.1363,0.1364,0,0.1102,0.1271,0.1523,0.1731,0.1799,0.1934,0.2111,0.2216,0.227,0.225,0.2215,0.2112,0.2039,0.189,0.1725,0.1734,0.1615,0.1468,0.1463,0.1466,0.1324,0.1392,0.1428,0.1298,0.1371,0.1371,0.137,0,0.1132,0.1408,0.1611,0.1683,0.1937,0.2055,0.2185,0.2293,0.2349,0.2394,0.2387,0.2314,0.222,0.2077,0.1841,0.1791,0.1651,0.1512,0.1436,0.1437,0.1407,0.1404,0.1354,0.1438,0.1438,0.1438,0.1438,0,0.1249,0.1406,0.1637,0.1763,0.1972,0.2117,0.232,0.2407,0.2492,0.2562,0.2504,0.2488,0.2252,0.214,0.1952,0.1758,0.1747,0.1528,0.1455,0.1442,0.1442,0.1305,0.1206,0.1439,0.1439,0.1439,0.1439,0,0.1273,0.1424,0.166,0.1934,0.2008,0.2159,0.2389,0.2506,0.2571,0.2656,0.266,0.2599,0.248,0.2277,0.202,0.1867,0.1585,0.1604,0.1665,0.16,0.1402,0.1309,0.1178,0.1118,0.1552,0.1553,0.1554,0,0.1337,0.1466,0.1756,0.1868,0.2006,0.2227,0.2378,0.2524,0.2615,0.2715,0.2734,0.2668,0.2638,0.2345,0.2106,0.1879,0.1624,0.1662,0.1541,0.1466,0.1304,0.118,0.1129,0.1545,0.1545,0.1546,0.1546,0,0.145,0.1541,0.1718,0.1935,0.2111,0.2301,0.2507,0.2562,0.2738,0.2848,0.2899,0.2886,0.2668,0.2424,0.2146,0.1967,0.1559,0.1664,0.1528,0.1298,0.1213,0.1096,0.1499,0.155,0.1549,0.1549,0.1549,0.1549,0.1519,0.1623,0.1834,0.2018,0.2182,0.2349,0.2467,0.2626,0.281,0.2898,0.2951,0.2899,0.2594,0.2243,0.2026,0.1662,0.1625,0.145,0.1352,0.1242,0.1161,0.1645,0.1628,0.1628,0.1629,0.1629,0.1629,0,0.1633,0.1741,0.1909,0.2133,0.2261,0.2364,0.2533,0.2615,0.2779,0.2853,0.2908,0.2742,0.2402,0.2019,0.163,0.1365,0.1228,0.1191,0.0997,0.0964,0.1353,0.133,0.1317,0.1318,0.1318,0.1318,0.1318,0.1318,0.1695,0.1879,0.1948,0.2158,0.2282,0.2422,0.2485,0.2568,0.2593,0.2688,0.2641,0.2596,0.2369,0.157,0.1076,0.1004,0.0754,0.0711,0.0615,0.0863,0.0878,0.0893,0.085,0.0737,0.0736,0.0239,0.0234,0.0231]}],[{"header":{"parameterUnit":"m.s-1","parameterCategory":2,"la1":30.2991,"la2":30.254,"lo1":-89.0895,"lo2":-89.0444,"dy":0.0017,"dx":0.0017,"nx":28,"ny":28,"refTime":"2023-04-25T21:00:00:Z","depth":"2","parameterNumber":2,"parameterNumberName":"U-component_of_CURRENTS"},"data":[0,0,0,0,0,0,0,0,0,0,0,0,0,0,0,0,0,0,0,0,0,0,0,0,0,0,0,0,0,0,0,0,0,0,0,0,0,0,0,0,0,0,0,0,0,0,0,0,0,0,0,0,0,0,0,0,0,0,-0.1542,-0.1543,0,-0.1511,-0.151,-0.1509,-0.1544,-0.1547,-0.1549,-0.1552,-0.1496,-0.1493,-0.1489,0,0,0,0,0,0,0,0,0,0,0,0,0,-0.1509,-0.1509,-0.1542,-0.1543,-0.1544,-0.1512,-0.151,-0.1508,-0.1544,-0.1547,-0.155,-0.1553,-0.1498,-0.1493,-0.1489,0,0,0,0,0,0,0,0,0,0,0,0,0,-0.1494,-0.1509,-0.1542,-0.1567,-0.157,-0.1512,-0.151,-0.1508,-0.1543,-0.1547,-0.1551,-0.1554,-0.1499,-0.1494,-0.1488,-0.1378,0,0,-0.147,-0.1468,0,0,0,0,0,0,0,0,-0.1495,-0.1493,-0.1562,-0.1565,-0.1568,-0.1547,-0.1479,-0.1467,-0.1542,-0.154,-0.1552,-0.1556,-0.1516,-0.1509,-0.1478,-0.1375,-0.1373,-0.147,-0.1467,-0.1464,-0.1462,0,0,0,0,0,0,0,-0.1496,-0.1494,-0.1517,-0.1563,-0.1567,-0.1539,-0.154,-0.1475,-0.1497,-0.154,-0.1546,-0.1561,-0.1517,-0.1483,-0.1477,-0.1372,-0.147,-0.1465,-0.1462,-0.1459,-0.1184,-0.1181,0,0,0,0,0,0,-0.1527,-0.1496,-0.1518,-0.1517,-0.1554,-0.1538,-0.1539,-0.1539,-0.1498,-0.15,-0.1558,-0.1564,-0.1491,-0.1483,-0.1475,-0.14,-0.1464,-0.1459,-0.1456,-0.1188,-0.1183,-0.1179,0,0,0,0,0,0,-0.1526,-0.1529,-0.152,-0.1517,-0.1516,-0.1536,-0.1535,-0.1537,-0.153,-0.1515,-0.1514,-0.1556,-0.1493,-0.1483,-0.1411,-0.1397,-0.1456,-0.1451,-0.1193,-0.1187,-0.1181,-0.1213,0,0,0,0,0,0,-0.1525,-0.1528,-0.1522,-0.1519,-0.1518,-0.1545,-0.1533,-0.1534,-0.1539,-0.1545,-0.1511,-0.1508,-0.1496,-0.1419,-0.1405,-0.139,-0.1447,-0.1198,-0.119,-0.1183,-0.1217,-0.1209,-0.1202,0,0,0,0,0,-0.1523,-0.1533,-0.1521,-0.1525,-0.1514,-0.1548,-0.1544,-0.1562,-0.1536,-0.1559,-0.1484,-0.1511,-0.1363,-0.141,-0.1395,-0.1379,-0.1201,-0.1192,-0.1184,-0.122,-0.121,-0.1202,0,0,0,0,0,0,-0.1494,-0.1538,-0.1526,-0.1539,-0.1564,-0.1561,-0.1578,-0.1557,-0.1509,-0.1499,-0.1456,-0.1448,-0.1381,-0.1347,-0.14,-0.1267,-0.1287,-0.1274,-0.1319,-0.131,-0.1303,-0.1257,-0.1442,0,0,0,0,0,-0.1486,-0.152,-0.1541,-0.155,-0.1571,-0.1556,-0.156,-0.1568,-0.1536,-0.1521,-0.1476,-0.14,-0.132,-0.1296,-0.1234,-0.1155,-0.112,-0.1127,-0.112,-0.1115,-0.1059,-0.0955,-0.0935,-0.1151,-0.1151,-0.1151,0,0,-0.1475,-0.1503,-0.1518,-0.1549,-0.1559,-0.155,-0.1568,-0.1595,-0.1545,-0.1514,-0.1422,-0.1378,-0.1288,-0.121,-0.1177,-0.1193,-0.1052,-0.1104,-0.1101,-0.1046,-0.0944,-0.0923,-0.0905,-0.1145,-0.1146,-0.1147,0,0,-0.1475,-0.15,-0.1523,-0.154,-0.1577,-0.1568,-0.1579,-0.1571,-0.1545,-0.1454,-0.1402,-0.1331,-0.1224,-0.1157,-0.1101,-0.0997,-0.1014,-0.0996,-0.0931,-0.0834,-0.0816,-0.08,-0.0825,-0.081,-0.0998,-0.0998,-0.0998,0,-0.1442,-0.1464,-0.1533,-0.1539,-0.1533,-0.1571,-0.1548,-0.1517,-0.1467,-0.1404,-0.1439,-0.1205,-0.1181,-0.1017,-0.0996,-0.0986,-0.0965,-0.0995,-0.083,-0.0812,-0.0794,-0.0822,-0.0806,-0.0998,-0.0998,-0.0998,-0.0998,0,-0.1435,-0.1449,-0.1472,-0.1478,-0.1483,-0.1494,-0.1474,-0.144,-0.1399,-0.1341,-0.1202,-0.1136,-0.0993,-0.0994,-0.0965,-0.0816,-0.0861,-0.0843,-0.0872,-0.0776,-0.0811,-0.0794,-0.0999,-0.0999,-0.0998,-0.0998,0,0,-0.1331,-0.1445,-0.1437,-0.143,-0.1447,-0.1441,-0.1372,-0.1303,-0.1218,-0.1162,-0.1034,-0.0903,-0.0873,-0.0799,-0.0771,-0.0699,-0.063,-0.072,-0.0715,-0.078,-0.0493,-0.0543,-0.0531,-0.0588,-0.0582,-0.0578,-0.0606,0,-0.128,-0.1306,-0.1351,-0.131,-0.1312,-0.1313,-0.1234,-0.1167,-0.1116,-0.1017,-0.0926,-0.0801,-0.0796,-0.0741,-0.0659,-0.0623,-0.0565,-0.0628,-0.054,-0.0538,-0.0621,-0.0502,-0.0414,-0.0427,-0.0589,-0.0586,-0.0583,0,-0.1183,-0.1243,-0.1229,-0.1227,-0.1218,-0.1166,-0.1053,-0.099,-0.0878,-0.0835,-0.0708,-0.0665,-0.0528,-0.0559,-0.041,-0.0452,-0.0443,-0.0439,-0.044,-0.0437,-0.0548,-0.0521,-0.0389,-0.0554,-0.0556,-0.0558,-0.056,0,-0.104,-0.1096,-0.1092,-0.1093,-0.1117,-0.1049,-0.1003,-0.0902,-0.0831,-0.07,-0.066,-0.0501,-0.0445,-0.0344,-0.036,-0.0358,-0.0267,-0.0269,-0.0307,-0.0318,-0.019,-0.0197,-0.0126,-0.0126,-0.0126,-0.0126,-0.0126,0,-0.0906,-0.0892,-0.1028,-0.1013,-0.0949,-0.0956,-0.0827,-0.0764,-0.068,-0.0604,-0.0537,-0.0477,-0.0377,-0.0349,-0.0327,-0.0287,-0.0229,-0.0249,-0.0277,-0.0212,-0.0219,-0.026,-0.0275,-0.0127,-0.0127,-0.0126,-0.0126,0,-0.0711,-0.0817,-0.0826,-0.0888,-0.088,-0.081,-0.0741,-0.0671,-0.0597,-0.051,-0.0466,-0.043,-0.0389,-0.0366,-0.0286,-0.0266,-0.0219,-0.0228,-0.0232,-0.0255,-0.0354,-0.037,-0.0212,-0.0213,-0.0214,-0.0214,-0.0215,0,-0.0623,-0.0625,-0.072,-0.0723,-0.074,-0.0675,-0.0636,-0.0596,-0.0558,-0.0495,-0.0473,-0.043,-0.0384,-0.034,-0.0287,-0.0242,-0.0282,-0.0182,-0.0102,-0.0293,-0.0338,-0.0353,-0.0367,-0.0004,-0.0003,-0.0001,-0.0001,0,-0.0479,-0.0525,-0.0536,-0.0565,-0.0556,-0.0561,-0.0515,-0.0488,-0.0471,-0.042,-0.0388,-0.0336,-0.0312,-0.02,-0.0193,-0.0178,-0.0167,-0.016,-0.0277,-0.0006,-0.0099,-0.0145,-0.0164,0.0009,0.0008,0.0007,0.0006,0.0006,-0.036,-0.0349,-0.0393,-0.0399,-0.0402,-0.0437,-0.0393,-0.0398,-0.0348,-0.0274,-0.0313,-0.0197,-0.0179,-0.0055,-0.0057,-0.0077,-0.0103,-0.0067,-0.0067,-0.0069,-0.0049,-0.0138,-0.0042,-0.0043,-0.0044,-0.0045,-0.0046,0,-0.0263,-0.0268,-0.0244,-0.028,-0.026,-0.0315,-0.0322,-0.0293,-0.0247,-0.0179,-0.0112,-0.0011,0.0091,0.0082,0.0138,0.0127,0.014,0.0075,0.0145,0.0135,0.0127,0.0159,0.022,0.0221,0.0222,0.0222,0,0,-0.022,-0.02,-0.022,-0.0186,-0.0177,-0.0164,-0.0171,-0.0134,-0.0071,0.0032,0.0129,0.017,0.018,0.0258,0.023,0.0267,0.0193,0.0237,0.003,0.0109,0.0102,0.0052,0.0091,0,0,0,0,0]},{"header":{"parameterUnit":"m.s-1","parameterCategory":2,"la1":30.2991,"la2":30.254,"lo1":-89.0895,"lo2":-89.0444,"dy":0.0017,"dx":0.0017,"nx":28,"ny":28,"refTime":"2023-04-25T21:00:00:Z","depth":"2","parameterNumber":3,"parameterNumberName":"V-component_of_CURRENTS"},"data":[0,0,0,0,0,0,0,0,0,0,0,0,0,0,0,0,0,0,0,0,0,0,0,0,0,0,0,0,0,0,0,0,0,0,0,0,0,0,0,0,0,0,0,0,0,0,0,0,0,0,0,0,0,0,0,0,0,0,-0.0527,-0.0524,0,-0.0267,-0.0265,-0.0263,-0.0229,-0.0231,-0.0232,-0.0233,-0.0206,-0.0204,-0.0202,0,0,0,0,0,0,0,0,0,0,0,0,0,-0.0611,-0.0613,-0.0528,-0.0523,-0.0519,-0.0268,-0.0265,-0.0263,-0.0229,-0.0231,-0.0232,-0.0234,-0.0207,-0.0204,-0.0202,0,0,0,0,0,0,0,0,0,0,0,0,0,-0.0497,-0.0614,-0.0528,-0.0464,-0.0455,-0.0268,-0.0265,-0.0262,-0.0228,-0.0231,-0.0233,-0.0235,-0.0208,-0.0205,-0.0202,-0.0136,0,0,-0.0192,-0.019,0,0,0,0,0,0,0,0,-0.0504,-0.0495,-0.0478,-0.0468,-0.0458,-0.0274,-0.0283,-0.0228,-0.0228,-0.0326,-0.0233,-0.0236,-0.0242,-0.0236,-0.0194,-0.0135,-0.0134,-0.0191,-0.019,-0.0188,-0.0187,0,0,0,0,0,0,0,-0.0512,-0.0504,-0.0435,-0.0473,-0.046,-0.0316,-0.0307,-0.0271,-0.0287,-0.0317,-0.0311,-0.0265,-0.024,-0.0197,-0.0193,-0.0133,-0.0192,-0.0189,-0.0187,-0.0185,0.0048,0.0052,0,0,0,0,0,0,-0.0541,-0.0514,-0.0443,-0.0426,-0.0475,-0.0314,-0.0304,-0.0339,-0.0282,-0.027,-0.0263,-0.0264,-0.0201,-0.0197,-0.0192,-0.0121,-0.0188,-0.0185,-0.0183,0.0044,0.0049,0.0054,0,0,0,0,0,0,-0.0546,-0.0541,-0.0454,-0.045,-0.0428,-0.0312,-0.035,-0.0332,-0.0258,-0.0236,-0.0232,-0.0203,-0.0203,-0.0197,-0.0121,-0.0121,-0.0184,-0.0181,0.0039,0.0045,0.0051,0.0026,0,0,0,0,0,0,-0.0551,-0.0547,-0.0565,-0.0456,-0.0429,-0.0315,-0.0346,-0.0325,-0.0223,-0.0221,-0.0183,-0.0184,-0.0204,-0.0125,-0.0118,-0.0117,-0.0178,0.0033,0.0042,0.0049,0.0021,0.003,0.0038,0,0,0,0,0,-0.0556,-0.0579,-0.057,-0.0558,-0.0469,-0.031,-0.0282,-0.0211,-0.0217,-0.016,-0.0137,-0.0184,-0.007,-0.0118,-0.0111,-0.011,0.0029,0.0039,0.0049,0.0017,0.0029,0.0038,0,0,0,0,0,0,-0.0588,-0.0573,-0.0562,-0.0572,-0.0433,-0.03,-0.0234,-0.018,-0.0108,-0.0115,-0.0124,-0.012,-0.004,-0.0042,-0.0096,-0.0005,-0.0029,-0.0017,-0.0055,-0.0044,-0.0036,-0.015,-0.0176,0,0,0,0,0,-0.0611,-0.0654,-0.0542,-0.0529,-0.047,-0.0342,-0.0265,-0.0203,-0.012,-0.0089,-0.006,-0.003,0.0009,0.0006,0.0066,0.0102,0.0072,0.0116,0.0125,0.0131,0.0054,0.0047,0.0043,0.0085,0.0085,0.0085,0,0,-0.059,-0.0603,-0.0605,-0.0538,-0.0439,-0.0362,-0.0304,-0.0167,-0.0134,-0.01,-0.0048,0.0029,0.0046,0.0097,0.0126,0.0078,0.0126,0.0143,0.0147,0.0064,0.0056,0.005,0.0045,0.0092,0.009,0.0089,0,0,-0.0578,-0.0599,-0.0615,-0.0523,-0.0386,-0.0325,-0.0278,-0.0121,-0.009,0.0005,0.0033,0.0101,0.0171,0.0162,0.0161,0.0259,0.0208,0.0311,0.0199,0.0197,0.0189,0.0182,0.0198,0.0192,0.0266,0.0266,0.0266,0,-0.0564,-0.0591,-0.0558,-0.0524,-0.045,-0.0321,-0.0249,-0.0197,-0.0037,-0.002,0.0013,0.013,0.017,0.0159,0.0188,0.026,0.0261,0.0141,0.0194,0.0187,0.0179,0.0196,0.019,0.0266,0.0266,0.0266,0.0266,0,-0.055,-0.0542,-0.0514,-0.05,-0.0411,-0.0304,-0.0224,-0.0152,-0.0098,-0.0051,0.0022,0.0095,0.0131,0.0187,0.0193,0.0181,0.0206,0.0236,0.0134,0.0171,0.0192,0.0185,0.0266,0.0266,0.0266,0.0266,0,0,-0.0615,-0.0536,-0.0531,-0.0488,-0.0386,-0.03,-0.0277,-0.0203,-0.0191,-0.0094,-0.0086,-0.0019,0.0027,0.0031,0.0087,0.0058,0.0055,0.0097,0.0098,0.005,0.0055,-0.003,-0.0045,0.0088,0.0086,0.0084,0.0107,0,-0.0604,-0.057,-0.0538,-0.0446,-0.0386,-0.0298,-0.0284,-0.0217,-0.0167,-0.0127,-0.0113,-0.0051,-0.0044,0.001,-0.0033,0.0065,0.0028,0.0045,0.0076,0.0076,-0.0058,-0.0061,-0.0051,-0.0041,0.0101,0.01,0.0099,0,-0.061,-0.0596,-0.0529,-0.0427,-0.0392,-0.0339,-0.0279,-0.0238,-0.0211,-0.0172,-0.0176,-0.0125,-0.0152,-0.0112,-0.0118,-0.0105,-0.0063,-0.0016,-0.0012,-0.0122,-0.0027,-0.0058,-0.0059,0.0087,0.0088,0.0089,0.009,0,-0.0666,-0.058,-0.0543,-0.0498,-0.0387,-0.0351,-0.0297,-0.0248,-0.0216,-0.0197,-0.0159,-0.0196,-0.0158,-0.0176,-0.0111,-0.0107,-0.0091,-0.0053,-0.0108,-0.0109,-0.0123,-0.0125,-0.0091,-0.0091,-0.0091,-0.0091,-0.0091,0,-0.0669,-0.0627,-0.0559,-0.0518,-0.0462,-0.0375,-0.0316,-0.0273,-0.0223,-0.0203,-0.019,-0.0195,-0.0172,-0.0153,-0.0134,-0.0164,-0.0119,-0.0177,-0.0141,-0.0117,-0.0119,-0.0034,-0.0028,-0.009,-0.009,-0.0091,-0.0091,0,-0.0683,-0.0647,-0.0594,-0.0507,-0.0469,-0.0427,-0.03,-0.0273,-0.022,-0.0193,-0.0186,-0.0175,-0.019,-0.0155,-0.0125,-0.017,-0.0172,-0.0176,-0.0151,-0.012,-0.0183,-0.0176,-0.029,-0.0294,-0.0297,-0.0299,-0.0301,0,-0.0683,-0.0667,-0.0597,-0.0567,-0.0509,-0.0432,-0.038,-0.0289,-0.026,-0.0209,-0.0212,-0.0196,-0.0264,-0.0271,-0.026,-0.027,-0.0221,-0.0291,-0.0334,-0.0267,-0.0218,-0.0207,-0.0197,-0.0298,-0.03,-0.0301,-0.0302,0,-0.0694,-0.0686,-0.0635,-0.0575,-0.0516,-0.0467,-0.0383,-0.0364,-0.0291,-0.0287,-0.0324,-0.0375,-0.0369,-0.0414,-0.0393,-0.0403,-0.031,-0.0334,-0.0247,-0.0283,-0.0282,-0.0231,-0.0219,-0.0316,-0.0315,-0.0314,-0.0313,-0.0313,-0.0706,-0.069,-0.0637,-0.0573,-0.0526,-0.0517,-0.0489,-0.0443,-0.0437,-0.041,-0.0439,-0.0466,-0.0475,-0.0484,-0.0481,-0.0428,-0.0455,-0.046,-0.0451,-0.044,-0.048,-0.049,-0.0566,-0.0566,-0.0566,-0.0566,-0.0566,0,-0.0711,-0.0691,-0.0638,-0.0591,-0.0571,-0.0526,-0.0502,-0.0491,-0.0527,-0.0472,-0.0508,-0.0507,-0.0563,-0.0507,-0.0464,-0.0526,-0.0463,-0.0527,-0.042,-0.041,-0.04,-0.0432,-0.0508,-0.0507,-0.0507,-0.0506,0,0,-0.0711,-0.0671,-0.0648,-0.0638,-0.0615,-0.0604,-0.0608,-0.06,-0.055,-0.053,-0.0481,-0.0492,-0.0512,-0.0471,-0.0513,-0.0487,-0.043,-0.0485,-0.0538,-0.04,-0.0388,-0.0382,-0.0425,0,0,0,0,0]}],[{"header":{"parameterUnit":"m.s-1","parameterCategory":2,"la1":30.2991,"la2":30.254,"lo1":-89.0895,"lo2":-89.0444,"dy":0.0017,"dx":0.0017,"nx":28,"ny":28,"refTime":"2023-04-25T21:00:00:Z","depth":"4","parameterNumber":2,"parameterNumberName":"U-component_of_CURRENTS"},"data":[0,0,0,0,0,0,0,0,0,0,0,0,0,0,0,0,0,0,0,0,0,0,0,0,0,0,0,0,0,0,0,0,0,0,0,0,0,0,0,0,0,0,0,0,0,0,0,0,0,0,0,0,0,0,0,0,0,0,-0.0445,-0.0445,0,-0.0425,-0.0425,-0.0425,-0.0398,-0.0398,-0.0397,-0.0397,-0.0362,-0.0361,-0.0361,0,0,0,0,0,0,0,0,0,0,0,0,0,-0.0401,-0.0403,-0.0445,-0.0445,-0.0445,-0.0425,-0.0425,-0.0425,-0.0398,-0.0398,-0.0397,-0.0397,-0.0362,-0.0361,-0.0361,0,0,0,0,0,0,0,0,0,0,0,0,0,-0.0404,-0.0403,-0.0445,-0.043,-0.0428,-0.0425,-0.0425,-0.0424,-0.0398,-0.0398,-0.0397,-0.0397,-0.0362,-0.0361,-0.0361,-0.0365,0,0,-0.0358,-0.0357,0,0,0,0,0,0,0,0,-0.0404,-0.0406,-0.0432,-0.0431,-0.0429,-0.0414,-0.0397,-0.0404,-0.0398,-0.0409,-0.0397,-0.0396,-0.0379,-0.0377,-0.0373,-0.0364,-0.0362,-0.0358,-0.0357,-0.0357,-0.0357,0,0,0,0,0,0,0,-0.0404,-0.0406,-0.0436,-0.0432,-0.043,-0.0404,-0.0404,-0.0398,-0.0396,-0.0408,-0.0406,-0.0405,-0.0378,-0.0374,-0.0372,-0.0362,-0.0358,-0.0357,-0.0356,-0.0356,-0.038,-0.0381,0,0,0,0,0,0,-0.0412,-0.0406,-0.0437,-0.0436,-0.0416,-0.0406,-0.0406,-0.0419,-0.0396,-0.0393,-0.0406,-0.0404,-0.0376,-0.0373,-0.0371,-0.0414,-0.0357,-0.0356,-0.0355,-0.0379,-0.038,-0.0381,0,0,0,0,0,0,-0.0412,-0.0416,-0.0437,-0.042,-0.0421,-0.0408,-0.0422,-0.0419,-0.0421,-0.0395,-0.0391,-0.0412,-0.0375,-0.0372,-0.0372,-0.0411,-0.0356,-0.0355,-0.0377,-0.0379,-0.0381,-0.0476,0,0,0,0,0,0,-0.0411,-0.0416,-0.043,-0.0421,-0.0423,-0.0444,-0.0422,-0.0419,-0.0422,-0.042,-0.04,-0.0395,-0.0375,-0.0373,-0.0371,-0.0409,-0.0354,-0.0376,-0.0378,-0.038,-0.0471,-0.0481,-0.0489,0,0,0,0,0,-0.041,-0.0425,-0.0431,-0.0434,-0.0442,-0.0445,-0.0444,-0.043,-0.0423,-0.0429,-0.0415,-0.0396,-0.0386,-0.0373,-0.037,-0.0409,-0.0375,-0.0377,-0.038,-0.0467,-0.0479,-0.0489,0,0,0,0,0,0,-0.0406,-0.0424,-0.043,-0.0449,-0.0454,-0.0441,-0.0446,-0.0439,-0.0434,-0.0435,-0.0406,-0.0402,-0.0415,-0.0397,-0.0384,-0.0421,-0.038,-0.0382,-0.0447,-0.0458,-0.0466,-0.0457,-0.0353,0,0,0,0,0,-0.0417,-0.0438,-0.0445,-0.0462,-0.0468,-0.0462,-0.0463,-0.046,-0.0452,-0.0449,-0.0434,-0.0424,-0.0424,-0.0427,-0.0415,-0.0438,-0.04,-0.0461,-0.047,-0.0477,-0.0467,-0.0451,-0.0457,-0.039,-0.039,-0.039,0,0,-0.0418,-0.0432,-0.0442,-0.0463,-0.0467,-0.0476,-0.0461,-0.0473,-0.0479,-0.0447,-0.0452,-0.0449,-0.0433,-0.0455,-0.0461,-0.0447,-0.0478,-0.0481,-0.0488,-0.0473,-0.0454,-0.046,-0.0466,-0.0392,-0.0392,-0.0391,0,0,-0.0428,-0.045,-0.047,-0.0478,-0.0495,-0.0495,-0.0503,-0.0504,-0.0506,-0.0517,-0.0499,-0.0519,-0.0509,-0.0515,-0.0515,-0.0565,-0.0518,-0.0568,-0.0615,-0.0601,-0.0606,-0.061,-0.0576,-0.0576,-0.0582,-0.0582,-0.0582,0,-0.0436,-0.0458,-0.0473,-0.049,-0.0496,-0.0506,-0.0519,-0.0525,-0.0525,-0.0522,-0.0528,-0.0533,-0.0539,-0.0561,-0.0593,-0.0587,-0.0556,-0.0581,-0.0612,-0.0615,-0.0618,-0.0582,-0.0581,-0.0587,-0.0586,-0.0586,-0.0585,0,-0.045,-0.0473,-0.0485,-0.0515,-0.0521,-0.0539,-0.055,-0.0557,-0.0567,-0.0567,-0.059,-0.0609,-0.0603,-0.0635,-0.0637,-0.0668,-0.0633,-0.062,-0.0586,-0.063,-0.0589,-0.0587,-0.0594,-0.0592,-0.0591,-0.0589,0,0,-0.0467,-0.0495,-0.05,-0.0509,-0.0539,-0.0541,-0.0559,-0.0568,-0.0562,-0.06,-0.059,-0.0658,-0.0664,-0.0664,-0.0683,-0.0706,-0.0727,-0.0685,-0.0682,-0.0652,-0.0675,-0.0619,-0.061,-0.0718,-0.0718,-0.0718,-0.0642,0,-0.0482,-0.0508,-0.052,-0.0539,-0.0551,-0.056,-0.0566,-0.0574,-0.0579,-0.057,-0.0617,-0.0618,-0.0675,-0.0683,-0.072,-0.0705,-0.0722,-0.0747,-0.0635,-0.0631,-0.0577,-0.0606,-0.0718,-0.0639,-0.0638,-0.0638,-0.0637,0,-0.0495,-0.0509,-0.0529,-0.054,-0.0547,-0.0554,-0.0548,-0.0559,-0.0554,-0.0555,-0.0579,-0.0582,-0.0628,-0.0663,-0.0684,-0.0692,-0.0694,-0.0699,-0.0695,-0.0601,-0.057,-0.0583,-0.0631,-0.0632,-0.0632,-0.0633,-0.0633,0,-0.0482,-0.0515,-0.0528,-0.0535,-0.0549,-0.0549,-0.0555,-0.055,-0.0544,-0.0534,-0.0518,-0.0555,-0.056,-0.0584,-0.0622,-0.0637,-0.0621,-0.0627,-0.0577,-0.0572,-0.0602,-0.0598,-0.0633,-0.0633,-0.0633,-0.0633,-0.0634,0,-0.0487,-0.0497,-0.0521,-0.0523,-0.0521,-0.0538,-0.0527,-0.0524,-0.0515,-0.0497,-0.0513,-0.0501,-0.0543,-0.0542,-0.058,-0.0566,-0.0582,-0.0576,-0.0551,-0.0645,-0.0647,-0.06,-0.0597,-0.063,-0.0631,-0.0632,-0.0632,0,-0.0465,-0.0489,-0.0496,-0.0511,-0.0513,-0.0507,-0.0505,-0.0491,-0.0489,-0.0458,-0.0452,-0.0443,-0.0431,-0.0465,-0.0477,-0.0492,-0.0493,-0.0487,-0.0568,-0.0549,-0.0458,-0.0461,-0.0395,-0.0392,-0.039,-0.0388,-0.0387,0,-0.0446,-0.0454,-0.0473,-0.0466,-0.0472,-0.0469,-0.0462,-0.0471,-0.0455,-0.0427,-0.0406,-0.0376,-0.0375,-0.0332,-0.0383,-0.0396,-0.042,-0.0402,-0.0461,-0.0453,-0.0435,-0.0442,-0.0448,-0.0383,-0.0383,-0.0382,-0.0382,0,-0.0405,-0.0424,-0.0427,-0.0428,-0.0423,-0.0408,-0.0403,-0.0384,-0.0389,-0.0391,-0.0334,-0.031,-0.0278,-0.0285,-0.029,-0.0321,-0.0402,-0.038,-0.0385,-0.044,-0.0438,-0.0424,-0.0432,-0.0374,-0.0375,-0.0376,-0.0376,0,-0.0366,-0.0361,-0.0383,-0.0375,-0.0368,-0.0344,-0.0347,-0.0326,-0.0315,-0.0298,-0.0279,-0.0261,-0.0261,-0.0244,-0.0264,-0.0266,-0.0274,-0.0285,-0.0296,-0.0304,-0.0317,-0.0305,-0.0169,0,0,0,0,0,-0.032,-0.0323,-0.0323,-0.0313,-0.0309,-0.0307,-0.0304,-0.0313,-0.0321,-0.0267,-0.0271,-0.0243,-0.0218,-0.0215,-0.0202,-0.0237,-0.0288,-0.0222,-0.0309,-0.0332,-0.0341,-0.0369,0,0,0,0,0,0,-0.0294,-0.03,-0.0314,-0.0271,-0.0248,-0.024,-0.0233,-0.024,-0.0217,-0.0223,-0.0212,-0.022,-0.0208,-0.0215,-0.019,-0.0193,-0.0242,-0.0224,-0.0224,-0.0327,-0.0335,-0.0342,-0.0374,0,0,0,0,0]},{"header":{"parameterUnit":"m.s-1","parameterCategory":2,"la1":30.2991,"la2":30.254,"lo1":-89.0895,"lo2":-89.0444,"dy":0.0017,"dx":0.0017,"nx":28,"ny":28,"refTime":"2023-04-25T21:00:00:Z","depth":"4","parameterNumber":3,"parameterNumberName":"V-component_of_CURRENTS"},"data":[0,0,0,0,0,0,0,0,0,0,0,0,0,0,0,0,0,0,0,0,0,0,0,0,0,0,0,0,0,0,0,0,0,0,0,0,0,0,0,0,0,0,0,0,0,0,0,0,0,0,0,0,0,0,0,0,0,0,-0.0467,-0.0467,0,-0.0466,-0.0466,-0.0466,-0.0469,-0.0469,-0.047,-0.047,-0.0438,-0.0437,-0.0436,0,0,0,0,0,0,0,0,0,0,0,0,0,-0.042,-0.0421,-0.0467,-0.0467,-0.0467,-0.0466,-0.0466,-0.0466,-0.0469,-0.0469,-0.047,-0.047,-0.0438,-0.0437,-0.0436,0,0,0,0,0,0,0,0,0,0,0,0,0,-0.0432,-0.0421,-0.0467,-0.0468,-0.0468,-0.0466,-0.0466,-0.0466,-0.0469,-0.0469,-0.047,-0.047,-0.0438,-0.0437,-0.0436,-0.0426,0,0,-0.0432,-0.0431,0,0,0,0,0,0,0,0,-0.0432,-0.0434,-0.0468,-0.0468,-0.0468,-0.0467,-0.0437,-0.0451,-0.0469,-0.047,-0.047,-0.047,-0.0444,-0.0442,-0.0443,-0.0425,-0.0423,-0.0431,-0.0431,-0.043,-0.043,0,0,0,0,0,0,0,-0.0431,-0.0434,-0.0467,-0.0468,-0.0468,-0.045,-0.0453,-0.044,-0.0456,-0.047,-0.047,-0.0468,-0.0444,-0.0445,-0.0443,-0.0423,-0.0432,-0.043,-0.043,-0.0429,-0.043,-0.043,0,0,0,0,0,0,-0.0433,-0.0434,-0.0467,-0.0467,-0.0449,-0.0451,-0.0454,-0.0468,-0.0457,-0.0456,-0.0468,-0.0469,-0.0447,-0.0444,-0.0441,-0.049,-0.043,-0.0429,-0.0428,-0.0429,-0.043,-0.0431,0,0,0,0,0,0,-0.0432,-0.0436,-0.0467,-0.0449,-0.0451,-0.0452,-0.0468,-0.0468,-0.0472,-0.0457,-0.0455,-0.0473,-0.0447,-0.0443,-0.0437,-0.0486,-0.0428,-0.0427,-0.0428,-0.0429,-0.043,-0.0548,0,0,0,0,0,0,-0.0431,-0.0437,-0.0445,-0.0449,-0.0452,-0.0482,-0.0468,-0.0468,-0.0471,-0.0471,-0.046,-0.0457,-0.0447,-0.0439,-0.0435,-0.0483,-0.0426,-0.0427,-0.0428,-0.043,-0.0543,-0.0553,-0.0562,0,0,0,0,0,-0.0429,-0.0447,-0.0446,-0.045,-0.0466,-0.0482,-0.0483,-0.0483,-0.0471,-0.0485,-0.0468,-0.0457,-0.0447,-0.0438,-0.0434,-0.0483,-0.0426,-0.0428,-0.043,-0.0539,-0.0551,-0.0561,0,0,0,0,0,0,-0.0443,-0.0449,-0.0448,-0.047,-0.0481,-0.0483,-0.0493,-0.0485,-0.0483,-0.0482,-0.0459,-0.0456,-0.0472,-0.0448,-0.0439,-0.0484,-0.0438,-0.0439,-0.0522,-0.0533,-0.0543,-0.0545,-0.0425,0,0,0,0,0,-0.0447,-0.0457,-0.0465,-0.0485,-0.0491,-0.049,-0.0493,-0.0496,-0.0493,-0.0493,-0.0484,-0.0473,-0.0476,-0.048,-0.0471,-0.0489,-0.0459,-0.0517,-0.0527,-0.0535,-0.0532,-0.0526,-0.0535,-0.0437,-0.0437,-0.0437,0,0,-0.0459,-0.0462,-0.0469,-0.0486,-0.0493,-0.0504,-0.0494,-0.051,-0.0522,-0.0488,-0.0501,-0.05,-0.0483,-0.0513,-0.0519,-0.0502,-0.0549,-0.0538,-0.0545,-0.0537,-0.0529,-0.0538,-0.0547,-0.0438,-0.0438,-0.0438,0,0,-0.047,-0.0493,-0.0492,-0.0503,-0.0513,-0.0522,-0.0527,-0.0537,-0.0548,-0.0566,-0.0545,-0.057,-0.0568,-0.0578,-0.0579,-0.0627,-0.0593,-0.0629,-0.069,-0.0685,-0.0693,-0.07,-0.0687,-0.0692,-0.0642,-0.0642,-0.0642,0,-0.0481,-0.0485,-0.0498,-0.05,-0.051,-0.053,-0.0537,-0.0557,-0.0563,-0.0571,-0.0586,-0.0599,-0.0606,-0.0628,-0.067,-0.0654,-0.0632,-0.0657,-0.0699,-0.0705,-0.071,-0.0695,-0.0699,-0.0648,-0.0647,-0.0647,-0.0646,0,-0.048,-0.0488,-0.0498,-0.0506,-0.0524,-0.0544,-0.057,-0.0593,-0.0619,-0.0633,-0.067,-0.0691,-0.0694,-0.0726,-0.0727,-0.0768,-0.0736,-0.0709,-0.0677,-0.0727,-0.0708,-0.071,-0.0656,-0.0654,-0.0652,-0.0651,0,0,-0.0493,-0.0493,-0.0496,-0.05,-0.053,-0.055,-0.0582,-0.0613,-0.0628,-0.0681,-0.0698,-0.077,-0.078,-0.0781,-0.0789,-0.0822,-0.0876,-0.08,-0.0797,-0.0798,-0.0857,-0.0818,-0.0815,-0.0857,-0.0858,-0.0858,-0.0834,0,-0.0488,-0.0484,-0.0489,-0.0511,-0.0521,-0.0554,-0.0581,-0.0616,-0.0657,-0.0683,-0.0736,-0.0758,-0.0798,-0.0816,-0.0858,-0.0853,-0.0883,-0.0884,-0.0797,-0.0794,-0.0762,-0.0817,-0.086,-0.0835,-0.0836,-0.0836,-0.0836,0,-0.0481,-0.048,-0.0488,-0.0511,-0.052,-0.054,-0.059,-0.0617,-0.066,-0.0687,-0.0727,-0.0745,-0.0803,-0.0829,-0.0869,-0.0864,-0.0875,-0.0887,-0.0885,-0.0804,-0.0758,-0.0768,-0.0838,-0.0838,-0.0838,-0.0838,-0.0838,0,-0.0482,-0.0487,-0.0494,-0.0504,-0.0532,-0.0549,-0.0575,-0.0618,-0.0646,-0.0678,-0.0703,-0.0741,-0.0776,-0.0797,-0.085,-0.0851,-0.0882,-0.0867,-0.0838,-0.0834,-0.0824,-0.0816,-0.0891,-0.0891,-0.0891,-0.0891,-0.0891,0,-0.0479,-0.0493,-0.0496,-0.0504,-0.053,-0.055,-0.0586,-0.061,-0.0642,-0.0675,-0.0702,-0.0736,-0.0777,-0.0805,-0.0831,-0.0844,-0.0857,-0.0855,-0.0831,-0.0874,-0.0872,-0.0825,-0.0818,-0.089,-0.0891,-0.0891,-0.0891,0,-0.0495,-0.0489,-0.0505,-0.0521,-0.0532,-0.0558,-0.0599,-0.0624,-0.0646,-0.0685,-0.0696,-0.0738,-0.0762,-0.0788,-0.0817,-0.082,-0.0826,-0.0824,-0.087,-0.0846,-0.0782,-0.0781,-0.0774,-0.0772,-0.0771,-0.077,-0.0769,0,-0.0502,-0.0507,-0.0525,-0.0538,-0.055,-0.0584,-0.061,-0.0632,-0.0655,-0.0697,-0.0715,-0.0741,-0.0767,-0.0767,-0.0792,-0.0787,-0.0797,-0.0786,-0.0802,-0.0796,-0.0773,-0.0774,-0.0774,-0.0767,-0.0767,-0.0766,-0.0766,0,-0.0525,-0.0532,-0.0552,-0.0564,-0.0588,-0.0619,-0.065,-0.0657,-0.0686,-0.0704,-0.0722,-0.0726,-0.0745,-0.0751,-0.0745,-0.0754,-0.0782,-0.0773,-0.0776,-0.079,-0.0787,-0.0766,-0.0768,-0.0762,-0.0762,-0.0763,-0.0763,0,-0.0552,-0.057,-0.0579,-0.0597,-0.0629,-0.0645,-0.0658,-0.0675,-0.069,-0.0711,-0.0721,-0.0737,-0.0752,-0.0735,-0.0739,-0.0726,-0.0724,-0.072,-0.0725,-0.073,-0.0728,-0.0719,-0.0659,0,0,0,0,0,-0.0565,-0.0577,-0.0602,-0.0618,-0.0655,-0.066,-0.0684,-0.0691,-0.0702,-0.0706,-0.0705,-0.0714,-0.0706,-0.0716,-0.0692,-0.0721,-0.0728,-0.0693,-0.0727,-0.0738,-0.0743,-0.0745,0,0,0,0,0,0,-0.0568,-0.0595,-0.06,-0.0635,-0.065,-0.0681,-0.0691,-0.0699,-0.0692,-0.0699,-0.0694,-0.0697,-0.0692,-0.0715,-0.0689,-0.0688,-0.0703,-0.0695,-0.0694,-0.0735,-0.0739,-0.0743,-0.0747,0,0,0,0,0]}]]